When you browse on this site, cookies collect data to enhance your experience and personalize the content and advertising you see.
Visit our Privacy Policy to learn more. By continuing to use the site, you agree to this use of cookies and data.
  • In Austria
  • List of Countries
  • For 7 days
  • Water Temperature
  • Satellite Maps
  • Weather Map
  • News
  • Weather Widgets
  • user-avatar
    Login

    Hourly Weather Cykowo

    Today, 21 March, Thursday

    Time Temperature Precipitation Wind Pressure Humidity
    00:00 +5°C° 0 mm 4 mps 767 mmHg 70%
    01:00 +5°C° 0 mm 4 mps 768 mmHg 71%
    02:00 +4°C° 0 mm 3 mps 767 mmHg 76%
    03:00 +4°C° 0 mm 3 mps 767 mmHg 81%
    04:00 +3°C° 0 mm 3 mps 767 mmHg 85%
    05:00 +4°C° 0 mm 3 mps 767 mmHg 88%
    06:00 +4°C° 0 mm 3 mps 768 mmHg 90%
    07:00 +4°C° 0 mm 3 mps 768 mmHg 93%
    08:00 +5°C° 0 mm 3 mps 768 mmHg 88%
    09:00 +8°C° 0 mm 3 mps 768 mmHg 84%
    10:00 +10°C° 0 mm 4 mps 768 mmHg 80%
    11:00 +10°C° 0 mm 4 mps 768 mmHg 77%
    12:00 +11°C° 0 mm 4 mps 768 mmHg 75%
    13:00 +12°C° 0 mm 4 mps 768 mmHg 72%
    14:00 +12°C° 0 mm 4 mps 767 mmHg 73%
    15:00 +12°C° 0 mm 4 mps 767 mmHg 73%
    16:00 +12°C° 0 mm 3 mps 767 mmHg 74%
    17:00 +12°C° 0 mm 3 mps 767 mmHg 76%
    18:00 +11°C° 0 mm 3 mps 767 mmHg 79%
    19:00 +12°C° 0 mm 2 mps 767 mmHg 81%
    20:00 +10°C° 0 mm 3 mps 767 mmHg 84%
    21:00 +9°C° 0 mm 3 mps 767 mmHg 86%
    22:00 +9°C° 0 mm 3 mps 767 mmHg 89%
    23:00 +9°C° 0 mm 3 mps 767 mmHg 90%

    Tomorrow, 22 March, Friday

    Time Temperature Precipitation Wind Pressure Humidity
    00:00 +9°C° 0 mm 3 mps 767 mmHg 91%
    01:00 +8°C° 0 mm 3 mps 767 mmHg 92%
    02:00 +8°C° 0 mm 2 mps 767 mmHg 92%
    03:00 +8°C° 0 mm 2 mps 767 mmHg 93%
    04:00 +8°C° 0 mm 2 mps 767 mmHg 93%
    05:00 +9°C° 0 mm 2 mps 767 mmHg 93%
    06:00 +9°C° 0 mm 2 mps 767 mmHg 94%
    07:00 +10°C° 0 mm 1 mps 767 mmHg 94%
    08:00 +10°C° 0 mm 2 mps 767 mmHg 88%
    09:00 +13°C° 0 mm 2 mps 767 mmHg 81%
    10:00 +14°C° 0 mm 2 mps 767 mmHg 75%
    11:00 +15°C° 0 mm 2 mps 767 mmHg 71%
    12:00 +16°C° 0 mm 2 mps 767 mmHg 66%
    13:00 +17°C° 0 mm 2 mps 767 mmHg 62%
    14:00 +17°C° 0 mm 2 mps 767 mmHg 62%
    15:00 +18°C° 0 mm 1 mps 766 mmHg 62%
    16:00 +18°C° 0 mm 1 mps 766 mmHg 62%
    17:00 +15°C° 0 mm 1 mps 766 mmHg 69%
    18:00 +14°C° 0 mm 2 mps 765 mmHg 75%
    19:00 +12°C° 0 mm 2 mps 765 mmHg 82%
    20:00 +12°C° 0 mm 2 mps 765 mmHg 85%
    21:00 +10°C° 0 mm 2 mps 765 mmHg 88%
    22:00 +10°C° 0 mm 2 mps 765 mmHg 91%
    23:00 +9°C° 0 mm 2 mps 765 mmHg 91%

    Day after tomorrow, 23 March, Saturday

    Time Temperature Precipitation Wind Pressure Humidity
    00:00 +9°C° 0 mm 2 mps 765 mmHg 92%
    01:00 +9°C° 0 mm 2 mps 765 mmHg 92%
    02:00 +9°C° 0 mm 2 mps 764 mmHg 92%
    03:00 +9°C° 0 mm 2 mps 764 mmHg 92%
    04:00 +8°C° 0 mm 2 mps 763 mmHg 92%
    05:00 +9°C° 0 mm 2 mps 763 mmHg 91%
    06:00 +9°C° 0 mm 2 mps 763 mmHg 89%
    07:00 +9°C° 0 mm 2 mps 763 mmHg 88%
    08:00 +11°C° 0 mm 3 mps 763 mmHg 80%
    09:00 +13°C° 0 mm 3 mps 763 mmHg 71%
    10:00 +16°C° 0 mm 3 mps 763 mmHg 63%
    11:00 +17°C° 0 mm 3 mps 762 mmHg 59%
    12:00 +18°C° 0 mm 3 mps 762 mmHg 55%
    13:00 +19°C° 0 mm 4 mps 762 mmHg 50%
    14:00 +19°C° 0 mm 3 mps 761 mmHg 51%
    15:00 +19°C° 0 mm 3 mps 761 mmHg 51%
    16:00 +19°C° 0 mm 3 mps 761 mmHg 52%
    17:00 +17°C° 0.1 mm 4 mps 761 mmHg 60%
    18:00 +15°C° 0.1 mm 4 mps 762 mmHg 68%
    19:00 +13°C° 0.1 mm 4 mps 762 mmHg 76%
    20:00 +12°C° 0 mm 4 mps 763 mmHg 78%
    21:00 +10°C° 0 mm 4 mps 763 mmHg 81%
    22:00 +8°C° 0 mm 4 mps 764 mmHg 83%
    23:00 +7°C° 0 mm 4 mps 764 mmHg 80%

    24 March, Sunday

    Time Temperature Precipitation Wind Pressure Humidity
    00:00 +6°C° 0 mm 4 mps 764 mmHg 78%
    01:00 +6°C° 0 mm 4 mps 764 mmHg 75%
    02:00 +5°C° 0 mm 3 mps 764 mmHg 73%
    03:00 +4°C° 0 mm 3 mps 764 mmHg 71%
    04:00 +4°C° 0 mm 2 mps 764 mmHg 70%
    05:00 +4°C° 0 mm 2 mps 764 mmHg 69%
    06:00 +4°C° 0 mm 2 mps 765 mmHg 69%
    07:00 +4°C° 0 mm 2 mps 765 mmHg 69%
    08:00 +5°C° 0 mm 2 mps 764 mmHg 63%
    09:00 +7°C° 0 mm 2 mps 764 mmHg 57%
    10:00 +8°C° 0 mm 2 mps 764 mmHg 51%
    11:00 +9°C° 0 mm 2 mps 764 mmHg 47%
    12:00 +10°C° 0 mm 2 mps 763 mmHg 43%
    13:00 +12°C° 0 mm 2 mps 763 mmHg 40%
    14:00 +12°C° 0 mm 2 mps 762 mmHg 39%
    15:00 +12°C° 0 mm 2 mps 761 mmHg 39%
    16:00 +12°C° 0 mm 1 mps 761 mmHg 38%
    17:00 +11°C° 0 mm 1 mps 761 mmHg 42%
    18:00 +9°C° 0 mm 2 mps 761 mmHg 46%
    19:00 +7°C° 0 mm 2 mps 760 mmHg 50%
    20:00 +8°C° 0 mm 1 mps 760 mmHg 50%
    21:00 +8°C° 0 mm 1 mps 760 mmHg 51%
    22:00 +8°C° 0 mm 1 mps 759 mmHg 51%
    23:00 +8°C° 0 mm 1 mps 759 mmHg 52%

    25 March, Monday

    Time Temperature Precipitation Wind Pressure Humidity
    00:00 +7°C° 0 mm 1 mps 759 mmHg 54%
    01:00 +7°C° 0 mm 1 mps 758 mmHg 55%
    02:00 +6°C° 0 mm 1 mps 758 mmHg 58%
    03:00 +5°C° 0 mm 2 mps 758 mmHg 60%
    04:00 +4°C° 0 mm 2 mps 758 mmHg 62%
    05:00 +4°C° 0 mm 2 mps 758 mmHg 65%
    06:00 +4°C° 0 mm 2 mps 758 mmHg 67%
    07:00 +4°C° 0 mm 2 mps 758 mmHg 69%
    08:00 +5°C° 0 mm 4 mps 757 mmHg 64%
    09:00 +6°C° 0 mm 5 mps 757 mmHg 60%
    10:00 +8°C° 0 mm 6 mps 757 mmHg 55%
    11:00 +8°C° 0 mm 7 mps 756 mmHg 52%
    12:00 +9°C° 0 mm 7 mps 756 mmHg 49%
    13:00 +9°C° 0 mm 8 mps 755 mmHg 46%
    14:00 +7°C° 0.3 mm 8 mps 755 mmHg 52%
    15:00 +7°C° 0.3 mm 9 mps 754 mmHg 58%
    16:00 +6°C° 0.3 mm 9 mps 754 mmHg 63%
    17:00 +5°C° 0.4 mm 8 mps 754 mmHg 66%
    18:00 +4°C° 0.4 mm 7 mps 754 mmHg 68%
    19:00 +3°C° 0.4 mm 6 mps 754 mmHg 70%
    20:00 +2°C° 0 mm 6 mps 754 mmHg 71%
    21:00 +2°C° 0 mm 6 mps 754 mmHg 73%
    22:00 +1°C° 0 mm 6 mps 754 mmHg 74%
    23:00 0°C° 0 mm 7 mps 753 mmHg 74%

    26 March, Tuesday

    Time Temperature Precipitation Wind Pressure Humidity
    00:00 0°C° 0 mm 8 mps 753 mmHg 73%
    01:00 0°C° 0 mm 8 mps 753 mmHg 73%
    02:00 0°C° 0 mm 8 mps 753 mmHg 73%
    03:00 -1°C° 0 mm 9 mps 752 mmHg 72%
    04:00 -1°C° 0 mm 9 mps 752 mmHg 72%
    05:00 -1°C° 0.1 mm 9 mps 753 mmHg 68%
    06:00 -1°C° 0.1 mm 9 mps 753 mmHg 65%
    07:00 0°C° 0.1 mm 10 mps 753 mmHg 62%
    08:00 0°C° 0.1 mm 10 mps 754 mmHg 60%
    09:00 0°C° 0.1 mm 10 mps 755 mmHg 58%
    10:00 0°C° 0.1 mm 10 mps 755 mmHg 57%
    11:00 0°C° 0 mm 10 mps 756 mmHg 54%
    12:00 +1°C° 0 mm 10 mps 757 mmHg 51%
    13:00 +1°C° 0 mm 10 mps 757 mmHg 49%
    14:00 +1°C° 0 mm 9 mps 758 mmHg 50%
    15:00 +1°C° 0 mm 9 mps 758 mmHg 51%
    16:00 +1°C° 0 mm 9 mps 759 mmHg 51%
    17:00 0°C° 0 mm 8 mps 760 mmHg 53%
    18:00 0°C° 0 mm 7 mps 760 mmHg 54%
    19:00 +1°C° 0 mm 6 mps 761 mmHg 55%
    20:00 -1°C° 0 mm 6 mps 761 mmHg 58%
    21:00 -2°C° 0 mm 6 mps 762 mmHg 60%
    22:00 -2°C° 0 mm 5 mps 762 mmHg 63%
    23:00 -2°C° 0 mm 5 mps 762 mmHg 64%
    Show more